Regional Weather Roundup
Issued by NWS

Home | Current Version | Previous Version | Graphics & Text | Print | Product List | Glossary On
Versions: 1 2 3 4 5 6 7 8 9 10 11 12 13 14 15 16 17 18 19 20 21 22 23 24 25 26 27 28 29 30 31 32 33 34 35 36 37 38 39 40 41 42 43 44 45 46 47 48 49 50
000
ASUS43 KOAX 060302
RWRNE

WEATHER ROUNDUP FOR NEBRASKA
NATIONAL WEATHER SERVICE OMAHA NE
1000 PM CDT THU MAY 05 2016

NOTES: SATELLITE DATA IS BEING USED TO AUGMENT CLOUD COVER ABOVE
       12000 FEET.
       "FAIR" INDICATES FEW OR NO CLOUDS BELOW 12,000 FEET WITH NO
       SIGNIFICANT WEATHER AND/OR OBSTRUCTIONS TO VISIBILITY.

  * THESE STATIONS DO NOT REPORT WEATHER SUCH AS RAIN...SNOW OR FOG.

NEZ001>004-019>022-054>056-060400-
NEBRASKA PANHANDLE

CITY           SKY/WX    TMP DP  RH WIND       PRES   REMARKS
SCOTTSBLUFF    CLOUDY    65  44  46 SE7       29.94R
ALLIANCE       PTCLDY    61  48  62 SE13      29.94R
CHADRON        PTCLDY    63  46  54 SE3       29.88R
KIMBALL        CLOUDY    58  44  58 SE9       30.01S
SIDNEY         CLOUDY    60  46  59 S12       30.00R
$$

NEZ057>060-069>072-079>082-060400-
SOUTHWEST NEBRASKA

CITY           SKY/WX    TMP DP  RH WIND       PRES   REMARKS
NORTH PLATTE   CLOUDY    65  48  54 SE9       29.98R
IMPERIAL       CLOUDY    64  50  60 SE10      29.99R
MCCOOK         CLOUDY    65  50  58 S10       30.00R
$$

NEZ005>010-023>029-035>040-094-060400-
NORTH CENTRAL NEBRASKA

CITY           SKY/WX    TMP DP  RH WIND       PRES   REMARKS
VALENTINE      PTCLDY    73  44  35 S17       29.89R
AINSWORTH      CLOUDY    68  47  45 S14       29.92S
BROKEN BOW     CLEAR     66  49  54 S8        29.99R
ORD            CLEAR     58  49  72 SW8       29.97R
$$

NEZ041-046>049-061>064-073>077-083>087-060400-
SOUTH CENTRAL NEBRASKA

CITY           SKY/WX    TMP DP  RH WIND       PRES   REMARKS
GRAND ISLAND   CLEAR     63  45  51 S8        30.01R
AURORA         CLEAR     68  41  37 S9        30.01R
HASTINGS       CLEAR     65  44  46 S6        30.02R
KEARNEY *      CLEAR     63  45  51 S7        30.02R
YORK           CLEAR     64  39  39 S8        30.01R
$$

NEZ011>018-030>034-042>045-060400-
NORTHEAST NEBRASKA

CITY           SKY/WX    TMP DP  RH WIND       PRES   REMARKS
NORFOLK        CLEAR     65  41  41 S12       29.98R
ALBION         CLEAR     62  44  50 S3        29.99R
BLAIR          CLEAR     66  41  40 S5        30.01R
COLUMBUS *     CLEAR     63  41  45 SE8       30.01R
FREMONT        CLEAR     63  43  48 SE6       30.01R
TEKAMAH        CLEAR     58  50  75 S7        29.99R
$$

NEZ050>053-065>068-078-088>093-060400-
SOUTHEAST NEBRASKA

CITY           SKY/WX    TMP DP  RH WIND       PRES   REMARKS
LINCOLN        CLEAR     62  43  49 S7        30.02R
OMAHA EPPLEY   MOCLDY    63  46  54 S6        30.00R
BEATRICE       CLEAR     66  43  43 SE6       30.02S
FALLS CITY     CLEAR     66  40  38 SE5       30.02R
$$

NEZ044-045-051>053-067-060400-
OMAHA AREA

CITY           SKY/WX    TMP DP  RH WIND       PRES   REMARKS
OMAHA EPPLEY   MOCLDY    63  46  54 S6        30.00R
BLAIR          CLEAR     66  41  40 S5        30.01R
FREMONT        CLEAR     63  43  48 SE6       30.01R
OFFUTT AFB     CLEAR     57  53  85 SE1       30.00R
$$




USA.gov is the U.S. government's official web portal to all federal, state and local government web resources and services.